Weather History for KDAN - October, 2013

Change the Weather History Date:

Thursday, October 3, 2013

  Actual Average Record
Temperature  
Mean Temperature 71 °F 64 °F  
Max Temperature 85 °F 74 °F 94 °F (1954)
Min Temperature 57 °F 54 °F 30 °F (1974)
Degree Days  
Heating Degree Days 0 4  
Month to date heating degree days 0 10  
Since 1 July heating degree days 24 38  
Cooling Degree Days 6 2  
Month to date cooling degree days 15 6  
Year to date cooling degree days 1377 1409  
Growing Degree Days 20 (Base 50)    
Moisture  
Dew Point 60 °F    
Average Humidity 72    
Maximum Humidity 100    
Minimum Humidity 43    
Precipitation  
Precipitation 0.00 in 0.11 in 2.15 in (1979)
Month to date precipitation 0.00 0.35  
Year to date precipitation 42.46 34.60  
Snow  
Snow 0.00 in - - ()
Month to date snowfall 0.0  
Since 1 July snowfall 0.0  
Since 1 September snowfall 0.0  
Snow Depth 0.00 in    
Sea Level Pressure  
Sea Level Pressure 30.09 in    
Wind  
Wind Speed 1 mph (SW)    
Max Wind Speed 9 mph    
Max Gust Speed 13 mph    
Visibility 8 miles    
Events      
T = Trace of Precipitation, MM = Missing Value Source: NWS Daily Summary

Daily Weather History Graph

Daily Weather History Graph

Search for Another Location

Airport or City:

Trip Planner

Search our weather history database for the weather conditions in past years. The results will help you decide how hot, cold, wet, or windy it might be!

Date:

Astronomy

Oct. 03, 2013 Rise Set
Actual Time 7:14 AM EDT 6:57 PM EDT
Civil Twilight 6:48 AM EDT 7:23 PM EDT
Nautical Twilight 6:18 AM EDT 7:53 PM EDT
Astronomical Twilight 5:48 AM EDT 8:23 PM EDT
Moon 5:47 AM EDT (10/3) 6:04 PM EDT (10/3)
Length of Visible Light 12h 34m
Length of Day
11h 43m
Waning Crescent, 2% of the Moon is Illuminated
Oct 3
Waning Crescent
Oct 4
New
Oct 11
First Quarter
Oct 18
Full
Oct 26
Last Quarter

Hourly Weather History & Observations

Time (EDT) Temp. Heat Index Dew Point Humidity Pressure Visibility Wind Dir Wind Speed Gust Speed Precip Events Conditions
12:53 AM 61.0 °F - 59.0 °F 93% 30.09 in 7.0 mi Calm Calm - N/A   Clear
1:35 AM 60.8 °F - 60.8 °F 100% 30.12 in 2.5 mi SW 3.5 mph - N/A   Clear
1:44 AM 60.8 °F - 59.0 °F 94% 30.12 in 6.0 mi SSW 3.5 mph - N/A   Clear
1:53 AM 60.1 °F - 59.0 °F 96% 30.09 in 5.0 mi Calm Calm - N/A   Clear
2:53 AM 59.0 °F - 57.0 °F 93% 30.08 in 4.0 mi Calm Calm - N/A   Clear
3:53 AM 57.9 °F - 57.0 °F 97% 30.07 in 2.0 mi Calm Calm - N/A   Clear
4:06 AM 57.2 °F - 57.2 °F 100% 30.10 in 4.0 mi Calm Calm - N/A   Clear
4:53 AM 57.9 °F - 57.0 °F 97% 30.08 in 7.0 mi Calm Calm - N/A   Clear
5:53 AM 57.9 °F - 55.9 °F 93% 30.08 in 7.0 mi Calm Calm - N/A   Clear
6:46 AM 57.2 °F - 55.4 °F 94% 30.11 in 5.0 mi Calm Calm - N/A   Partly Cloudy
6:53 AM 57.0 °F - 55.0 °F 93% 30.09 in 4.0 mi Calm Calm - N/A   Partly Cloudy
7:53 AM 57.9 °F - 57.0 °F 97% 30.11 in 4.0 mi Calm Calm - N/A   Clear
8:53 AM 62.1 °F - 60.1 °F 93% 30.12 in 8.0 mi Calm Calm - N/A   Clear
9:53 AM 66.0 °F - 61.0 °F 84% 30.12 in 9.0 mi Calm Calm - N/A   Scattered Clouds
10:53 AM 71.1 °F - 62.1 °F 73% 30.13 in 9.0 mi Calm Calm - N/A   Overcast
11:53 AM 75.0 °F - 62.1 °F 64% 30.12 in 10.0 mi Calm Calm - N/A   Scattered Clouds
12:53 PM 80.1 °F 81.7 °F 64.0 °F 58% 30.09 in 10.0 mi Calm Calm - N/A   Clear
1:53 PM 81.0 °F 81.6 °F 60.1 °F 49% 30.07 in 10.0 mi West 5.8 mph - N/A   Clear
2:53 PM 82.0 °F 82.1 °F 59.0 °F 45% 30.06 in 10.0 mi Calm Calm - N/A   Scattered Clouds
3:53 PM 82.9 °F 82.8 °F 59.0 °F 44% 30.05 in 10.0 mi SW 5.8 mph - N/A   Clear
4:53 PM 84.9 °F 84.4 °F 59.0 °F 41% 30.04 in 10.0 mi SSW 4.6 mph - N/A   Clear
5:53 PM 82.0 °F 83.0 °F 62.1 °F 51% 30.04 in 10.0 mi Calm Calm - N/A   Clear
6:53 PM 73.9 °F - 66.0 °F 76% 30.06 in 10.0 mi Calm Calm - N/A   Scattered Clouds
7:53 PM 69.1 °F - 63.0 °F 81% 30.06 in 10.0 mi Calm Calm - N/A   Partly Cloudy
8:53 PM 68.0 °F - 63.0 °F 84% 30.07 in 10.0 mi Calm Calm - N/A   Clear
9:53 PM 66.9 °F - 62.1 °F 84% 30.08 in 10.0 mi Calm Calm - N/A   Clear
10:53 PM 64.0 °F - 62.1 °F 93% 30.08 in 10.0 mi Calm Calm - N/A   Clear